Location: Newark
(51.3318°N, 0.0053°E)
Time: 11:20:51
(UTC+00:00)

MOZHAYETS 4 - Pass Details

Date: 28 June 2022
Orbit: 660 x 679 km, 98.2° (Epoch: 12 August)

Event Time Altitude Azimuth Distance (km) Brightness Sun altitude
Exits shadow 02:37:24 - 181° (S) 2,537 10.2 -8.1°
Reaches altitude 10° 02:38:29 10° 184° (S) 2,111 9.8 -8.0°
Maximum altitude 02:42:58 50° 260° (W) 869 8.0 -7.6°
Drops below altitude 10° 02:47:28 10° 336° (NNW) 2,118 10.7 -7.1°
Sets 02:49:46 0° 342° (NNW) 3,034 11.6 -6.9°
